Rockwall, TX

2:07 PM CDT on July 21, 2017 (GMT -0500)
Rockwall

Weather History for KF46 - February, 2013

Change the Weather History Date:

Sunday, February 24, 2013

  Actual Average (KDFW) Record (KDFW)
Temperature  
Mean Temperature 52 °F -  
Max Temperature 68 °F 58 °F 93 °F (1918)
Min Temperature 36 °F 40 °F 15 °F (1910)
Degree Days  
Heating Degree Days 13    
Growing Degree Days 2 (Base 50)    
Moisture  
Dew Point 37 °F    
Average Humidity 57    
Maximum Humidity 81    
Minimum Humidity 30    
Precipitation  
Precipitation 0.00 in - - ()
Sea Level Pressure  
Sea Level Pressure 29.82 in    
Wind  
Wind Speed 8 mph (SE)    
Max Wind Speed 18 mph    
Max Gust Speed 26 mph    
Visibility 10 miles    
Events      
Averages and records for this station are not official NWS values.
T = Trace of Precipitation, MM = Missing Value Source: NWS Daily Summary

Daily Weather History Graph

Daily Weather History Graph

Search for Another Location

Airport or City:

Trip Planner

Search our weather history database for the weather conditions in past years. The results will help you decide how hot, cold, wet, or windy it might be!

Date:

Astronomy

Feb. 24, 2013 Rise Set
Actual Time 6:59 AM CST 6:19 PM CST
Civil Twilight 6:34 AM CST 6:43 PM CST
Nautical Twilight 6:05 AM CST 7:12 PM CST
Astronomical Twilight 5:36 AM CST 7:41 PM CST
Moon 5:31 PM CST (2/24) 5:55 AM CST (2/24)
Length of Visible Light 12h 09m
Length of Day
11h 19m
Waxing Gibbous, 99% of the Moon is Illuminated
Feb 24
Waxing Gibbous
Feb 25
Full
Mar 4
Last Quarter
Mar 11
New
Mar 19
First Quarter

Hourly Weather History & Observations

Time (CST) Temp. Windchill Dew Point Humidity Pressure Visibility Wind Dir Wind Speed Gust Speed Precip Events Conditions
12:15 AM 39.0 °F 34.8 °F 29.3 °F 68% 29.92 in 10.0 mi East 5.8 mph - N/A   Clear
12:35 AM 39.6 °F 36.3 °F 30.9 °F 71% 29.93 in 10.0 mi ESE 4.6 mph - N/A   Clear
12:55 AM 39.2 °F 35.9 °F 31.8 °F 75% 29.93 in 10.0 mi ESE 4.6 mph - N/A   Clear
1:15 AM 38.3 °F 34.8 °F 32.0 °F 78% 29.93 in 10.0 mi ESE 4.6 mph - N/A   Clear
1:35 AM 38.7 °F 32.9 °F 32.2 °F 78% 29.93 in 10.0 mi ESE 8.1 mph - N/A   Clear
1:55 AM 39.9 °F 33.4 °F 32.0 °F 73% 29.92 in 10.0 mi ESE 10.4 mph - N/A   Clear
2:15 AM 39.2 °F 32.0 °F 32.0 °F 75% 29.91 in 10.0 mi East 11.5 mph - N/A   Clear
2:35 AM 38.7 °F 31.8 °F 32.2 °F 78% 29.90 in 10.0 mi ESE 10.4 mph - N/A   Clear
2:55 AM 39.2 °F 32.0 °F 32.7 °F 78% 29.89 in 10.0 mi ESE 11.5 mph - N/A   Clear
3:15 AM 38.3 °F 33.2 °F 32.5 °F 80% 29.89 in 10.0 mi ESE 6.9 mph - N/A   Clear
3:35 AM 38.5 °F 33.4 °F 32.0 °F 78% 29.90 in 10.0 mi SE 6.9 mph - N/A   Clear
3:55 AM 37.0 °F 32.4 °F 31.6 °F 81% 29.89 in 10.0 mi SE 5.8 mph - N/A   Clear
4:15 AM 37.4 °F 33.8 °F 30.9 °F 77% 29.89 in 10.0 mi SE 4.6 mph - N/A   Clear
4:35 AM 36.5 °F 31.8 °F 30.9 °F 80% 29.89 in 10.0 mi SE 5.8 mph - N/A   Clear
4:55 AM 37.0 °F 32.4 °F 30.7 °F 78% 29.89 in 10.0 mi ESE 5.8 mph - N/A   Clear
5:15 AM 37.6 °F 33.1 °F 30.9 °F 77% 29.89 in 10.0 mi ESE 5.8 mph - N/A   Clear
5:35 AM 37.6 °F 32.3 °F 31.1 °F 77% 29.89 in 10.0 mi ESE 6.9 mph - N/A   Clear
5:55 AM 37.8 °F 31.8 °F 31.1 °F 77% 29.89 in 10.0 mi ESE 8.1 mph - N/A   Clear
6:15 AM 38.3 °F 33.2 °F 31.6 °F 77% 29.89 in 10.0 mi ESE 6.9 mph - N/A   Clear
6:35 AM 37.9 °F 33.5 °F 31.8 °F 79% 29.90 in 10.0 mi ESE 5.8 mph - N/A   Clear
6:55 AM 37.6 °F 33.1 °F 32.0 °F 80% 29.91 in 10.0 mi ESE 5.8 mph - N/A   Clear
7:15 AM 37.9 °F 32.7 °F 32.0 °F 79% 29.90 in 10.0 mi ESE 6.9 mph - N/A   Clear
7:35 AM 39.0 °F 34.8 °F 32.7 °F 78% 29.91 in 10.0 mi SE 5.8 mph - N/A   Clear
7:55 AM 40.6 °F 35.4 °F 33.8 °F 77% 29.91 in 10.0 mi SE 8.1 mph - N/A   Clear
8:15 AM 42.4 °F 38.8 °F 34.9 °F 75% 29.92 in 10.0 mi SSE 5.8 mph - N/A   Clear
8:35 AM 45.5 °F 41.3 °F 36.7 °F 71% 29.92 in 10.0 mi SSE 8.1 mph - N/A   Clear
8:55 AM 48.0 °F - 37.8 °F 68% 29.93 in 10.0 mi SE 6.9 mph - N/A   Clear
9:15 AM 50.9 °F - 38.5 °F 62% 29.93 in 10.0 mi SE 11.5 mph - N/A   Clear
9:35 AM 53.1 °F - 39.4 °F 60% 29.93 in 10.0 mi SE 9.2 mph 17.3 mph N/A   Clear
9:55 AM 54.0 °F - 39.6 °F 58% 29.93 in 10.0 mi SE 9.2 mph - N/A   Clear
10:15 AM 56.1 °F - 40.5 °F 56% 29.92 in 10.0 mi SE 9.2 mph 17.3 mph N/A   Clear
10:35 AM 57.7 °F - 41.5 °F 55% 29.92 in 10.0 mi SSE 9.2 mph - N/A   Clear
10:55 AM 59.7 °F - 41.9 °F 52% 29.91 in 10.0 mi SSE 12.7 mph 19.6 mph N/A   Clear
11:15 AM 61.5 °F - 42.4 °F 50% 29.90 in 10.0 mi SSE 10.4 mph 18.4 mph N/A   Clear
11:35 AM 62.4 °F - 43.0 °F 49% 29.89 in 10.0 mi SSE 13.8 mph 23.0 mph N/A   Clear
11:55 AM 64.0 °F - 42.1 °F 45% 29.88 in 10.0 mi SSE 13.8 mph 20.7 mph N/A   Clear
12:15 PM 63.7 °F - 42.1 °F 45% 29.87 in 10.0 mi SSE 12.7 mph 20.7 mph N/A   Clear
12:35 PM 65.3 °F - 41.2 °F 41% 29.86 in 10.0 mi SSE 10.4 mph 19.6 mph N/A   Clear
12:55 PM 65.7 °F - 40.3 °F 39% 29.84 in 10.0 mi SSE 12.7 mph 19.6 mph N/A   Clear
1:15 PM 66.0 °F - 40.6 °F 39% 29.83 in 10.0 mi SSE 8.1 mph 21.9 mph N/A   Clear
1:35 PM 66.0 °F - 41.9 °F 41% 29.81 in 10.0 mi SE 11.5 mph 18.4 mph N/A   Clear
2:15 PM 66.9 °F - 41.0 °F 39% 29.78 in 10.0 mi SE 15.0 mph 21.9 mph N/A   Clear
2:35 PM 67.5 °F - 40.8 °F 38% 29.77 in 10.0 mi SSE 15.0 mph 23.0 mph N/A   Clear
2:55 PM 68.0 °F - 38.3 °F 34% 29.76 in 10.0 mi SE 13.8 mph 26.5 mph N/A   Clear
3:15 PM 68.4 °F - 38.5 °F 33% 29.75 in 10.0 mi ESE 16.1 mph 24.2 mph N/A   Clear
3:35 PM 68.4 °F - 37.6 °F 32% 29.74 in 10.0 mi ESE 16.1 mph 23.0 mph N/A   Clear
3:55 PM 68.4 °F - 37.8 °F 33% 29.72 in 10.0 mi ESE 16.1 mph 25.3 mph N/A   Clear
4:15 PM 68.2 °F - 36.5 °F 31% 29.71 in 10.0 mi SE 18.4 mph 26.5 mph N/A   Clear
4:35 PM 68.2 °F - 35.6 °F 30% 29.70 in 10.0 mi SE 17.3 mph 26.5 mph N/A   Clear
4:55 PM 67.8 °F - 35.8 °F 31% 29.70 in 10.0 mi SE 17.3 mph 26.5 mph N/A   Clear
5:15 PM 67.5 °F - 36.5 °F 32% 29.70 in 10.0 mi SSE 13.8 mph 24.2 mph N/A   Clear
5:35 PM 66.9 °F - 36.5 °F 33% 29.72 in 10.0 mi SSE 9.2 mph 17.3 mph N/A   Clear
5:55 PM 65.5 °F - 36.9 °F 35% 29.72 in 10.0 mi SSE 10.4 mph - N/A   Clear
6:15 PM 63.9 °F - 38.7 °F 39% 29.72 in 10.0 mi SE 5.8 mph - N/A   Clear
6:35 PM 61.7 °F - 38.3 °F 42% 29.73 in 10.0 mi SE 4.6 mph - N/A   Clear
6:55 PM 60.1 °F - 38.3 °F 44% 29.72 in 10.0 mi ESE 5.8 mph - N/A   Clear
7:15 PM 59.0 °F - 37.8 °F 45% 29.71 in 10.0 mi ESE 8.1 mph - N/A   Clear
7:35 PM 59.2 °F - 37.4 °F 44% 29.70 in 10.0 mi ESE 9.2 mph - N/A   Clear
7:55 PM 58.6 °F - 37.6 °F 46% 29.70 in 10.0 mi ESE 8.1 mph - N/A   Clear
8:15 PM 57.4 °F - 37.8 °F 48% 29.69 in 10.0 mi ESE 8.1 mph - N/A   Clear
8:35 PM 56.7 °F - 37.6 °F 49% 29.70 in 10.0 mi ESE 5.8 mph - N/A   Clear
9:15 PM 55.4 °F - 38.7 °F 53% 29.71 in 10.0 mi ESE 6.9 mph - N/A   Mostly Cloudy
9:35 PM 56.3 °F - 38.7 °F 52% 29.71 in 10.0 mi ESE 9.2 mph - N/A   Mostly Cloudy
9:55 PM 56.3 °F - 39.2 °F 53% 29.71 in 10.0 mi ESE 9.2 mph - N/A   Overcast
10:15 PM 56.8 °F - 39.2 °F 52% 29.70 in 10.0 mi ESE 9.2 mph - N/A   Overcast
10:35 PM 57.4 °F - 39.6 °F 51% 29.69 in 10.0 mi ESE 10.4 mph 16.1 mph N/A   Overcast
10:55 PM 56.7 °F - 39.7 °F 53% 29.69 in 10.0 mi ESE 11.5 mph - N/A   Scattered Clouds
11:15 PM 56.3 °F - 40.1 °F 55% 29.67 in 10.0 mi ESE 12.7 mph 17.3 mph N/A   Mostly Cloudy
11:35 PM 55.0 °F - 40.1 °F 57% 29.66 in 10.0 mi ESE 11.5 mph - N/A   Scattered Clouds
11:55 PM 54.5 °F - 39.9 °F 58% 29.63 in 10.0 mi ESE 11.5 mph - N/A   Clear